TimeEST,TemperatureF,Dew PointF,Humidity,Sea Level PressureIn,VisibilityMPH,Wind Direction,Wind SpeedMPH,Gust SpeedMPH,PrecipitationIn,Events,Conditions,WindDirDegrees,DateUTC
12:15 AM,-0.4,-7.6,72,29.57,10.0,West,5.8,-,N/A,,Clear,270,2013-01-02 05:15:00
12:35 AM,-0.4,-7.6,72,29.57,10.0,West,5.8,-,N/A,,Clear,280,2013-01-02 05:35:00
12:55 AM,-0.4,-7.6,72,29.58,10.0,West,9.2,-,N/A,,Clear,260,2013-01-02 05:55:00
1:15 AM,-0.4,-7.6,72,29.58,10.0,West,10.4,16.1,N/A,,Clear,270,2013-01-02 06:15:00
1:35 AM,-0.4,-9.4,66,29.59,10.0,West,8.1,-,N/A,,Clear,270,2013-01-02 06:35:00
1:55 AM,-0.4,-9.4,66,29.59,10.0,West,9.2,-,N/A,,Clear,260,2013-01-02 06:55:00
2:15 AM,-2.2,-9.4,71,29.59,10.0,West,9.2,18.4,N/A,,Clear,270,2013-01-02 07:15:00
2:35 AM,-2.2,-9.4,71,29.60,10.0,West,8.1,-,N/A,,Clear,270,2013-01-02 07:35:00
2:55 AM,-2.2,-9.4,71,29.60,10.0,West,9.2,-,N/A,,Clear,280,2013-01-02 07:55:00
3:15 AM,-2.2,-9.4,71,29.60,10.0,West,9.2,16.1,N/A,,Clear,280,2013-01-02 08:15:00
3:35 AM,-2.2,-9.4,71,29.61,10.0,West,9.2,-,N/A,,Clear,270,2013-01-02 08:35:00
3:55 AM,-2.2,-9.4,71,29.60,10.0,West,9.2,-,N/A,,Clear,270,2013-01-02 08:55:00
4:15 AM,-4.0,-9.4,78,29.60,10.0,West,6.9,-,N/A,,Clear,270,2013-01-02 09:15:00
4:35 AM,-4.0,-11.2,71,29.60,10.0,West,6.9,-,N/A,,Clear,260,2013-01-02 09:35:00
5:15 AM,-4.0,-9.4,78,29.60,10.0,West,6.9,-,N/A,,Clear,270,2013-01-02 10:15:00
5:35 AM,-4.0,-9999,N/A,29.60,10.0,West,6.9,-,N/A,,Clear,270,2013-01-02 10:35:00
5:55 AM,-4.0,-11.2,71,29.59,10.0,West,8.1,-,N/A,,Clear,270,2013-01-02 10:55:00
6:15 AM,-4.0,-9.4,78,29.59,10.0,West,6.9,-,N/A,,Clear,280,2013-01-02 11:15:00
6:35 AM,-5.8,-11.2,77,29.60,10.0,West,12.7,-,N/A,,Clear,270,2013-01-02 11:35:00
6:55 AM,-5.8,-13.0,71,29.59,10.0,West,15.0,-,N/A,,Clear,260,2013-01-02 11:55:00
7:15 AM,-5.8,-11.2,77,29.60,10.0,West,12.7,-,N/A,,Clear,260,2013-01-02 12:15:00
7:35 AM,-5.8,-11.2,77,29.60,10.0,West,8.1,-,N/A,,Clear,270,2013-01-02 12:35:00
7:55 AM,-4.0,-9999,N/A,29.61,10.0,West,10.4,-,N/A,,Clear,270,2013-01-02 12:55:00
8:15 AM,-4.0,-11.2,71,29.60,10.0,West,12.7,16.1,N/A,,Clear,260,2013-01-02 13:15:00
8:35 AM,-2.2,-11.2,66,29.61,10.0,West,13.8,-,N/A,,Clear,270,2013-01-02 13:35:00
8:55 AM,-2.2,-11.2,66,29.61,10.0,West,17.3,23.0,N/A,,Clear,260,2013-01-02 13:55:00
9:15 AM,-0.4,-9.4,66,29.61,10.0,West,17.3,24.2,N/A,,Clear,270,2013-01-02 14:15:00
9:35 AM,-0.4,-9.4,66,29.61,10.0,West,15.0,24.2,N/A,,Clear,270,2013-01-02 14:35:00
9:55 AM,1.4,-11.2,56,29.61,10.0,West,16.1,25.3,N/A,,Clear,260,2013-01-02 14:55:00
10:15 AM,1.4,-11.2,56,29.61,10.0,West,19.6,25.3,N/A,,Clear,270,2013-01-02 15:15:00
10:35 AM,1.4,-9.4,61,29.61,10.0,West,17.3,23.0,N/A,,Clear,270,2013-01-02 15:35:00
10:55 AM,3.2,-11.2,51,29.60,10.0,West,18.4,25.3,N/A,,Clear,270,2013-01-02 15:55:00
11:35 AM,3.2,-9.4,56,29.59,10.0,West,18.4,23.0,N/A,,Clear,270,2013-01-02 16:35:00
11:55 AM,5.0,-9.4,52,29.59,10.0,West,20.7,27.6,N/A,,Clear,280,2013-01-02 16:55:00
12:15 PM,6.8,-9.4,48,29.59,10.0,West,23.0,28.8,N/A,,Clear,270,2013-01-02 17:15:00
12:35 PM,6.8,-7.6,52,29.59,10.0,WNW,17.3,31.1,N/A,,Clear,290,2013-01-02 17:35:00
12:55 PM,6.8,-7.6,52,29.59,10.0,WNW,19.6,28.8,N/A,,Clear,290,2013-01-02 17:55:00
1:15 PM,6.8,-7.6,52,29.59,10.0,West,16.1,27.6,N/A,,Clear,270,2013-01-02 18:15:00
1:35 PM,6.8,-9.4,48,29.60,10.0,West,12.7,27.6,N/A,,Clear,270,2013-01-02 18:35:00
1:55 PM,6.8,-7.6,52,29.61,10.0,West,20.7,26.5,N/A,,Clear,270,2013-01-02 18:55:00
2:15 PM,6.8,-7.6,52,29.61,10.0,West,16.1,26.5,N/A,,Clear,270,2013-01-02 19:15:00
2:35 PM,6.8,-7.6,52,29.62,10.0,WNW,18.4,25.3,N/A,,Clear,290,2013-01-02 19:35:00
2:55 PM,6.8,-7.6,52,29.63,10.0,West,12.7,24.2,N/A,,Clear,270,2013-01-02 19:55:00
3:15 PM,6.8,-7.6,52,29.63,10.0,West,15.0,25.3,N/A,,Clear,270,2013-01-02 20:15:00
3:35 PM,6.8,-7.6,52,29.64,10.0,West,16.1,20.7,N/A,,Scattered Clouds,270,2013-01-02 20:35:00
3:55 PM,6.8,-7.6,52,29.65,10.0,West,15.0,-,N/A,,Mostly Cloudy,280,2013-01-02 20:55:00
4:15 PM,5.0,-5.8,61,29.67,10.0,WNW,18.4,-,N/A,,Mostly Cloudy,290,2013-01-02 21:15:00
4:35 PM,5.0,-7.6,56,29.67,10.0,WNW,15.0,20.7,N/A,,Partly Cloudy,290,2013-01-02 21:35:00
4:55 PM,3.2,-5.8,66,29.69,10.0,West,12.7,19.6,N/A,,Clear,280,2013-01-02 21:55:00
5:15 PM,3.2,-7.6,61,29.70,10.0,West,13.8,20.7,N/A,,Clear,280,2013-01-02 22:15:00
5:35 PM,3.2,-7.6,61,29.72,10.0,West,12.7,-,N/A,,Clear,280,2013-01-02 22:35:00
5:55 PM,3.2,-7.6,61,29.73,10.0,West,12.7,18.4,N/A,,Clear,280,2013-01-02 22:55:00
6:15 PM,3.2,-5.8,66,29.73,10.0,West,11.5,17.3,N/A,,Clear,280,2013-01-02 23:15:00
6:35 PM,3.2,-5.8,66,29.75,10.0,WNW,11.5,-,N/A,,Clear,290,2013-01-02 23:35:00
6:55 PM,3.2,-5.8,66,29.75,10.0,WNW,12.7,17.3,N/A,,Clear,290,2013-01-02 23:55:00
7:15 PM,3.2,-7.6,61,29.76,10.0,West,10.4,-,N/A,,Clear,280,2013-01-03 00:15:00
7:55 PM,3.2,-5.8,66,29.78,10.0,WNW,13.8,19.6,N/A,,Clear,290,2013-01-03 00:55:00
8:15 PM,3.2,-7.6,61,29.78,10.0,WNW,11.5,21.9,N/A,,Clear,290,2013-01-03 01:15:00
8:55 PM,3.2,-7.6,61,29.80,10.0,West,8.1,16.1,N/A,,Clear,280,2013-01-03 01:55:00
9:15 PM,1.4,-7.6,66,29.80,10.0,West,10.4,-,N/A,,Clear,280,2013-01-03 02:15:00
9:35 PM,1.4,-7.6,66,29.81,10.0,West,10.4,-,N/A,,Clear,270,2013-01-03 02:35:00
9:55 PM,-0.4,-7.6,72,29.82,10.0,West,6.9,-,N/A,,Clear,270,2013-01-03 02:55:00
10:35 PM,-0.4,-9.4,66,29.83,10.0,West,5.8,-,N/A,,Clear,280,2013-01-03 03:35:00
10:55 PM,-0.4,-7.6,72,29.84,10.0,West,10.4,-,N/A,,Clear,280,2013-01-03 03:55:00
11:15 PM,-0.4,-9.4,66,29.84,10.0,West,8.1,-,N/A,,Clear,270,2013-01-03 04:15:00
11:35 PM,-0.4,-7.6,72,29.85,10.0,West,6.9,-,N/A,,Clear,270,2013-01-03 04:35:00
11:55 PM,-0.4,-7.6,72,29.85,10.0,West,8.1,-,N/A,,Clear,270,2013-01-03 04:55:00